Regional Weather Roundup
Issued by NWS

Home | Current Version | Previous Version | Text Only | Print | Product List | Glossary On
Versions: 1 2 3 4 5 6 7 8 9 10 11 12 13 14 15 16 17 18 19 20 21 22 23 24 25 26 27 28 29 30 31 32 33 34 35 36 37 38 39 40 41 42 43 44 45 46 47 48 49 50
000
ASUS43 KLOT 230910
RWRIL

ILLINOIS REGIONAL WEATHER ROUNDUP
NATIONAL WEATHER SERVICE CHICAGO/ROMEOVILLE IL
400 AM CDT SAT AUG 23 2014

NOTE: "FAIR" INDICATES FEW OR NO CLOUDS BELOW 12,000 FEET WITH NO
SIGNIFICANT WEATHER AND/OR OBSTRUCTIONS TO VISIBILITY.

* THESE STATIONS ARE NOT UNDER NWS QUALITY CONTROL. THEY ALSO MAY NOT
  REPORT WEATHER SUCH AS PRECIPITATION OR FOG.

ILZ001-002-007-009-015-016-024-231000-
NORTHWEST ILLINOIS

CITY           SKY/WX    TMP DP  RH WIND       PRES   REMARKS
MOLINE         MOCLDY    76  73  91 E5        29.94S
STERLING*      MOCLDY    73  72  94 CALM      29.97R
SAVANNA*       CLOUDY    74  72  93 CALM      29.95S FOG
$$

ILZ003-004-008-010-011-017-018-231000-
NORTH CENTRAL ILLINOIS

CITY           SKY/WX    TMP DP  RH WIND       PRES   REMARKS
ROCKFORD       CLOUDY    74  71  91 CALM      29.98F
FREEPORT*      FOG       73  72  96 CALM      29.99S VSB 1
ROCHELLE*      PTCLDY    72  70  96 CALM      29.97F FOG
DE KALB*       FOG       70  70  98 E3        29.98F VSB 1/4
PERU*          PTCLDY    73  71  91 CALM      29.97S
$$

ILZ005-006-012>014-019>023-231000-
NORTHEAST ILLINOIS

CITY           SKY/WX    TMP DP  RH WIND       PRES   REMARKS
CHICAGO-OHARE  CLOUDY    74  70  87 N5        29.98S FOG
CHICAGO-MIDWAY MOCLDY    76  74  93 CALM      29.97S FOG
AURORA         MOCLDY    72  70  93 CALM      29.97F FOG
LANSING*       FOG       70  69  99 CALM      29.98S VSB 1/4
JOLIET*        PTCLDY    73  71  93 CALM      29.97F FOG
WAUKEGAN       FOG       71  69  93 NE5       29.98F VSB 1/4
DUPAGE AIRPORT MOCLDY    73  71  93 NE3       29.97S FOG
KANKAKEE*      FOG       69  69  99 CALM      29.97F VSB 3/4
WHEELING       CLOUDY    74  72  93 NE5       29.99F FOG
MORRIS*        PTCLDY    73  73 100 CALM      29.96F FOG
ROMEOVILLE*    FOG       71  71 100 CALM      29.98S VSB 3/4
NORTHERLY ISL    N/A     73  71  93 MISG        N/A
$$

LMZ740>746-231000-
SOUTHERN LAKE MICHIGAN

STATION/POSITION SKY/WX   TEMP    WIND        PRES    VSBY  WAVE
                          AIR SEA DIR/SP/G                  HT/PER
                          (F)     (DEG/KT/KT) (MB)    (MI)  (FT/S)
SOUTHERN BUOY              70 69  100/  8/ 10 1015.0R         1
WAUKEGAN HARBOR            71      20/  5/  6   N/A
HARRISON CRIB              72      20/  4/  5   N/A
BURNHAM HARBOR             72      10/  2/  4   N/A
CALUMET HARBOR             74      CALM  /  1 1013.8R
MICHIGAN CITY              74     170/  3/  4   N/A
MICHIGAN CITY 6N           73 73  180/  2/  4   N/A           0
ST. JOSEPH                 74 72  100/  2/  2   N/A           0
$$

ILZ025>027-034>036-040-047-049-050-058-095>099-231000-
WEST-CENTRAL ILLINOIS

CITY           SKY/WX    TMP DP  RH WIND       PRES   REMARKS
QUINCY         CLEAR     77  75  93 E5        29.93S
GALESBURG*     PTCLDY    73  73  97 E3        29.94F FOG
MACOMB*        CLEAR     74  74 100 E3        29.96F FOG
JACKSONVILLE*  CLEAR     77  76  95 SE3       29.94S FOG
PITTSFIELD*    PTCLDY    77  75  91 CALM      29.94S FOG
$$

ILZ028>032-037-038-041>044-048-051>054-059>061-231000-
CENTRAL ILLINOIS

CITY           SKY/WX    TMP DP  RH WIND       PRES   REMARKS
PONTIAC        CLEAR     72  72 100 E3        29.96F
DECATUR        PTCLDY    74  73  97 CALM      29.95F FOG
PEORIA         MOCLDY    76  73  91 CALM      29.95S
LACON*         PTCLDY    72  70  93 CALM      29.95S
LINCOLN*       PTCLDY    76  74  94 CALM      29.92S FOG
SPRINGFIELD    PTCLDY    78  75  90 CALM      29.93F HX  81
TAYLORVILLE    CLEAR     73  73 100 CALM      29.94S FOG
$$

ILZ033-039-045-046-055>057-062-063-231000-
EAST-CENTRAL ILLINOIS

CITY           SKY/WX    TMP DP  RH WIND       PRES   REMARKS
CHAMPAIGN      FOG       72  71  97 E5        29.96S VSB 1/4
DANVILLE*      HVY RAIN  69  69 100 CALM      29.94F VSB 1
RANTOUL*       CLEAR     73  70  89 CALM      29.97F FOG
MATTOON        PTCLDY    75  74  96 SE5       29.95S FOG
PARIS*         FOG       72  72 100 CALM      29.97S VSB 1/2
$$

ILZ079-100>102-231000-
SOUTHWEST ILLINOIS

CITY           SKY/WX    TMP DP  RH WIND       PRES   REMARKS
ALTON          CLEAR     76  76 100 CALM      29.94S FOG
BELLEVILLE     CLEAR     75  75 100 CALM      29.92F FOG
CAHOKIA*         N/A     76  75  97 S3        29.92S
SPARTA*        CLEAR     78  75  91 CALM      29.94S HX  81
$$

ILZ064>066-069>071-074>076-080>082-084>086-088>090-092>094-231000-
SOUTH-CENTRAL ILLINOIS

CITY           SKY/WX    TMP DP  RH WIND       PRES   REMARKS
CARBONDALE     CLEAR     78  74  87 SW5       29.93F HX  81
CAIRO*         CLEAR     80  74  81 SW5       29.94F HX  84
MARION         MOCLDY    81  75  83 S5        29.95S HX  86
MT. VERNON     PTCLDY    77  72  83 CALM      29.95F
CENTRALIA*     PTCLDY    76  73  93 SE3       29.94F FOG
SALEM*         CLEAR     79  78  95 SE3       29.94F FOG     HX  83
METROPOLIS*    PTCLDY    77  73  85 CALM      29.95S
$$

ILZ067-068-072-073-078-083-087-091-231000-
SOUTHEAST ILLINOIS

CITY           SKY/WX    TMP DP  RH WIND       PRES   REMARKS
LAWRENCEVILLE  MOCLDY    74  73  97 SE3       29.96S FOG
FLORA*         CLEAR     75  75  99 S3        29.95S FOG
FAIRFIELD*     CLEAR     79  77  94 S3        29.94F HX  83
HARRISBURG*    PTCLDY    76  76 100 SE3       29.96S
ROBINSON*      PTCLDY    75  74  97 CALM      29.96S FOG
CARMI*         PTCLDY    77  75  94 CALM      29.95F FOG
$$

ABBREVIATIONS USED IN REMARKS
   TC - TEMPERATURE IN CELSIUS
  WCI - WIND CHILL INDEX
   HX - HEAT INDEX
  VSB - VISIBILITY
$$



USA.gov is the U.S. government's official web portal to all federal, state and local government web resources and services.